Location: Saint-Palais-sur-Mer
(45.6429°N, 1.0859°W)
Time: 20:46:38
(UTC+01:00)

Vanguard 1 - Visible Passes

Search period start: 08 February 2026 00:00
Search period end: 18 February 2026 00:00
Orbit: 651 x 3820 km, 34.3° (Epoch: 6 February)

Date Brightness Start Highest point End Pass type
(mag) Time Alt. Az. Time Alt. Az. Time Alt. Az.
8 Feb 13.5 00:37:08 10° W 00:48:18 30° WSW 00:48:18 30° WSW visible
8 Feb 13.0 20:08:16 10° WSW 20:27:07 60° S 20:41:18 30° ESE visible
8 Feb 12.9 22:31:10 10° W 22:52:38 56° SSW 22:53:52 55° S visible
9 Feb 13.7 00:57:16 10° W 01:06:25 25° WSW 01:06:25 25° WSW visible
9 Feb 13.0 20:27:30 10° WSW 20:46:37 61° S 20:59:25 33° ESE visible
9 Feb 13.0 22:50:46 10° W 23:11:58 52° SSW 23:11:58 52° SSW visible
10 Feb 13.9 01:17:43 10° W 01:24:32 20° W 01:24:32 20° W visible
10 Feb 13.1 18:26:02 10° SW 18:41:23 52° SSE 19:03:10 10° E visible
10 Feb 13.0 20:46:47 10° WSW 21:06:09 61° S 21:17:33 37° SE visible
10 Feb 13.1 23:10:27 10° W 23:30:07 47° SW 23:30:07 47° SW visible
11 Feb 14.0 01:38:44 10° W 01:42:41 15° W 01:42:41 15° W visible
11 Feb 13.0 18:44:56 10° SW 19:00:38 56° SSE 19:22:53 10° E visible
11 Feb 13.0 21:06:10 10° W 21:25:39 59° S 21:35:42 40° SE visible
11 Feb 13.2 23:30:16 10° W 23:48:17 41° SW 23:48:17 41° SW visible
12 Feb 14.2 02:00:49 10° W 02:00:50 10° W 02:00:50 10° W visible
12 Feb 13.0 19:03:58 10° WSW 19:20:00 58° S 19:41:20 12° E visible
12 Feb 13.0 21:25:36 10° W 21:45:08 56° SSW 21:53:54 42° SSE visible
12 Feb 13.4 23:50:15 10° W 00:06:28 35° SW 00:06:28 35° SW visible
13 Feb 13.0 19:23:06 10° WSW 19:39:27 59° S 19:59:33 15° ESE visible
13 Feb 13.1 21:45:06 10° W 22:04:33 52° SSW 22:12:07 42° SSE visible
14 Feb 13.6 00:10:32 10° W 00:24:42 28° SW 00:24:42 28° SW visible
14 Feb 13.0 19:42:20 10° WSW 19:58:56 59° S 20:17:49 18° ESE visible
14 Feb 13.1 22:04:40 10° W 22:23:52 47° SSW 22:30:24 41° S visible
15 Feb 13.8 00:31:18 10° W 00:42:59 23° WSW 00:42:59 23° WSW visible
15 Feb 13.0 20:01:36 10° W 20:18:25 58° S 20:36:09 20° ESE visible
15 Feb 13.2 22:24:22 10° W 22:43:05 42° SSW 22:48:44 38° S visible
16 Feb 13.9 00:52:57 10° W 01:01:19 17° WSW 01:01:19 17° WSW visible
16 Feb 13.1 20:20:57 10° W 20:37:54 55° SSW 20:54:32 22° SE visible
16 Feb 13.4 22:44:14 10° W 23:02:12 36° SW 23:07:08 34° SSW visible
17 Feb 14.1 01:16:50 10° WSW 01:19:43 11° WSW 01:19:43 11° WSW visible
17 Feb 13.1 20:40:22 10° W 20:57:20 51° SSW 21:13:00 23° SE visible
17 Feb 13.5 23:04:23 10° W 23:21:13 30° SW 23:25:36 29° SSW visible
